Regional Weather Roundup
Issued by NWS Sioux Falls, SD

Home | Current Version | Previous Version | Graphics & Text | Print | Product List | Glossary On
Versions: 1 2 3 4 5 6 7 8 9 10 11 12 13 14 15 16 17 18 19 20 21 22 23 24 25 26 27 28 29 30 31 32 33 34 35 36 37 38 39 40 41 42 43 44 45 46 47 48 49 50
000
ASUS43 KFSD 211702
RWRFSD

WEATHER ROUNDUP FOR SE SOUTH DAKOTA/SW MINNESOTA/NW IOWA
NATIONAL WEATHER SERVICE SIOUX FALLS SD
1100 AM CST TUE FEB 21 2017

NOTE: "FAIR" INDICATES FEW OR NO CLOUDS BELOW 12,000 FEET WITH NO
SIGNIFICANT WEATHER AND OR OBSTRUCTIONS TO VISIBILITY.


SDZ038>040-050-052>070-211800-
SOUTHEAST SOUTH DAKOTA

CITY           SKY/WX    TMP DP  RH WIND       PRES   REMARKS
BROOKINGS      MOSUNNY   51  36  56 SW14      29.76F
CHAMBERLAIN    SUNNY     61  35  38 W7        29.77S
HURON          SUNNY     52  37  56 S7        29.75S
MADISON        FAIR      46  37  71 SW13      29.79S
MITCHELL       SUNNY     57  33  40 SW9       29.78F
SIOUX FALLS    PTSUNNY   52  37  56 SW10G17   29.81F
WINNER         FAIR      69  32  25 W15G25    29.77F
YANKTON        SUNNY     59  30  33 SW14G22   29.81F
$$

MNZ071-072-080-081-089-090-097-098-211800-
SOUTHWEST MINNESOTA

CITY           SKY/WX    TMP DP  RH WIND       PRES   REMARKS
FAIRMONT       SUNNY     53  44  71 S16       29.86F
JACKSON        SUNNY     50  37  62 SW18G25   29.86F
LUVERNE        CLOUDY    52  39  62 SW15      29.83S
MARSHALL       SUNNY     54  38  54 SW25      29.75F
MONTEVIDEO     SUNNY     52  52 100 W12G20    29.76S
PIPESTONE      MOSUNNY   52  37  58 SW15      29.79F
REDWOOD FALLS  SUNNY     55  41  59 S24G32    29.76F
TRACY          SUNNY     54  41  62 SW23G30   29.79F
WINDOM         SUNNY     55  41  58 S23G29    29.81F
WORTHINGTON    SUNNY     52  40  63 S22G30    29.82F
$$

IAZ001>003-012>014-020>022-031-032-NEZ013-014-SDZ071-211800-
NORTHWEST IOWA

CITY           SKY/WX    TMP DP  RH WIND       PRES   REMARKS
CHEROKEE       SUNNY     55  44  66 SW15G21   29.91F
DENISON        SUNNY     55  45  67 SW13G20   29.94S
ESTHERVILLE    SUNNY     53  43  68 SW21G29   29.86F
LE MARS        SUNNY     55  43  62 S21       29.88F
SHELDON        SUNNY     54  46  76 S23G31    29.83F
SIOUX CITY     SUNNY     60  42  51 S13       29.91F
SPENCER        SUNNY     53  43  68 SW20      29.87F
STORM LAKE     SUNNY     54  45  71 SW16      29.92F
$$

ABBREVIATIONS USED IN REMARKS
   TC - TEMPERATURE IN CELSIUS
  WCI - WIND CHILL INDEX
   HX - HEAT INDEX
  VSB - VISIBILITY





USA.gov is the U.S. government's official web portal to all federal, state and local government web resources and services.